This demonstration page uses our WeatherBlox Daily Observations layout. Learn more.

Left ArrowRight Arrow

Hourly Observations for October 15, 2021

Temp ( °F °C ) Dew Point ( °F °C ) Humidity (%) Winds ( mph kmh ) Pressure ( in mb ) Visibility ( mi km ) Precip ( " mm )
12:53 am 00:53 Mostly Cloudy 44 6.7 41 5 89 89 W 5 7 30.06 1018 10 16 0.00 0.00
1:53 am 01:53 Clear 43 6.1 40 4.4 89 89 WNW 3 6 30.05 1018 10 16 0.00 0.00
2:53 am 02:53 Clear 38 3.3 37 2.8 97 97 WNW 5 7 30.06 1018 10 16 0.00 0.00
3:53 am 03:53 Clear 39 3.9 37 2.8 93 93 NNW 8 13 30.05 1018 10 16 0.00 0.00
4:53 am 04:53 Clear 38 3.3 35 1.7 89 89 NNW 8 13 30.06 1018 10 16 0.00 0.00
5:53 am 05:53 Clear 38 3.3 34 1.1 86 86 NNW 8 13 30.09 1019 10 16 0.00 0.00
6:53 am 06:53 Clear 37 2.8 33 0.6 86 86 NNW 6 9 30.13 1020 10 16 0.00 0.00
7:53 am 07:53 Mostly Cloudy 35 1.7 32 0 89 89 Calm 30.16 1021 10 16 0.00 0.00
8:53 am 08:53 Sunny 39 3.9 34 1.1 82 82 NNW 3 6 30.19 1022 10 16 0.00 0.00
9:53 am 09:53 Sunny 45 7.2 35 1.7 68 68 NNW 8 13 30.21 1023 10 16 0.00 0.00
10:53 am 10:53 Sunny 49 9.4 35 1.7 59 59 NW 7 11 30.22 1023 10 16 0.00 0.00
11:53 am 11:53 Sunny 53 11.7 32 0 45 45 NW 12 19 30.21 1023 10 16 0.00 0.00
12:53 pm 12:53 Sunny 55 12.8 31 -0.6 40 40 WNW 16 26 30.20 1023 10 16 0.00 0.00
1:53 pm 13:53 Sunny 57 13.9 29 -1.7 34 34 NW 18 30 30.17 1022 10 16 0.00 0.00
2:53 pm 14:53 Mostly Sunny 58 14.4 29 -1.7 33 33 NW 15 24 30.16 1022 10 16 0.00 0.00
3:53 pm 15:53 Mostly Cloudy 56 13.3 28 -2.2 34 34 NW 17 28 30.17 1022 10 16 0.00 0.00
4:53 pm 16:53 Cloudy 57 13.9 27 -2.8 32 32 NW 16 26 30.17 1022 10 16 0.00 0.00
5:53 pm 17:53 Mostly Sunny 57 13.9 24 -4.4 28 28 NW 17 28 30.18 1022 10 16 0.00 0.00
6:53 pm 18:53 Sunny 52 11.1 25 -3.9 35 35 WNW 13 20 30.19 1023 10 16 0.00 0.00
7:53 pm 19:53 Clear 46 7.8 28 -2.2 50 50 W 7 11 30.22 1024 10 16 0.00 0.00
8:53 pm 20:53 Clear 42 5.6 28 -2.2 58 58 WNW 7 11 30.24 1024 10 16 0.00 0.00
9:53 pm 21:53 Clear 40 4.4 28 -2.2 63 63 WNW 7 11 30.24 1024 10 16 0.00 0.00
10:53 pm 22:53 Clear 38 3.3 29 -1.7 70 70 W 8 13 30.25 1024 10 16 0.00 0.00
11:53 pm 23:53 Clear 39 3.9 29 -1.7 67 67 W 8 13 30.24 1024 10 16 0.00 0.00

Powered by AerisWeather